When you browse on this site, cookies collect data to enhance your experience and personalize the content and advertising you see.
Visit our Privacy Policy to learn more. By continuing to use the site, you agree to this use of cookies and data.

Hourly Weather Livingstone

Today, 10 July, Friday

Time Temperature Precipitation Wind Pressure Humidity
00:00 +15°C° 0 mm 1 mps 683 mmHg 74%
01:00 +14°C° 0 mm 1 mps 683 mmHg 75%
02:00 +14°C° 0 mm 1 mps 683 mmHg 75%
03:00 +13°C° 0 mm 1 mps 683 mmHg 78%
04:00 +13°C° 0 mm 1 mps 683 mmHg 82%
05:00 +13°C° 0 mm 1 mps 683 mmHg 85%
06:00 +14°C° 0 mm 1 mps 683 mmHg 81%
07:00 +15°C° 0 mm 1 mps 684 mmHg 77%
08:00 +18°C° 0 mm 1 mps 684 mmHg 71%
09:00 +22°C° 0 mm 1 mps 685 mmHg 57%
10:00 +25°C° 0 mm 2 mps 686 mmHg 44%
11:00 +29°C° 0 mm 2 mps 686 mmHg 30%
12:00 +31°C° 0 mm 2 mps 685 mmHg 27%
13:00 +33°C° 0 mm 3 mps 685 mmHg 23%
14:00 +34°C° 0 mm 3 mps 684 mmHg 19%
15:00 +33°C° 0 mm 3 mps 684 mmHg 20%
16:00 +32°C° 0 mm 2 mps 683 mmHg 22%
17:00 +31°C° 0 mm 2 mps 683 mmHg 23%
18:00 +27°C° 0 mm 2 mps 682 mmHg 38%
19:00 +24°C° 0 mm 2 mps 682 mmHg 52%
20:00 +20°C° 0 mm 2 mps 682 mmHg 67%
21:00 +19°C° 0 mm 2 mps 682 mmHg 71%
22:00 +19°C° 0 mm 1 mps 683 mmHg 76%
23:00 +18°C° 0 mm 1 mps 683 mmHg 80%

Tomorrow, 11 July, Saturday

Time Temperature Precipitation Wind Pressure Humidity
00:00 +16°C° 0 mm 1 mps 682 mmHg 78%
01:00 +16°C° 0 mm 1 mps 682 mmHg 76%
02:00 +16°C° 0 mm 1 mps 682 mmHg 75%
03:00 +15°C° 0 mm 1 mps 682 mmHg 77%
04:00 +15°C° 0 mm 1 mps 682 mmHg 80%
05:00 +14°C° 0 mm 1 mps 682 mmHg 82%
06:00 +15°C° 0 mm 0 mps 683 mmHg 77%
07:00 +16°C° 0 mm 0 mps 684 mmHg 72%
08:00 +17°C° 0 mm 0 mps 684 mmHg 67%
09:00 +22°C° 0 mm 0 mps 685 mmHg 52%
10:00 +27°C° 0 mm 0 mps 686 mmHg 37%
11:00 +32°C° 0 mm 0 mps 687 mmHg 22%
12:00 +34°C° 0 mm 1 mps 686 mmHg 19%
13:00 +35°C° 0 mm 2 mps 686 mmHg 17%
14:00 +35°C° 0 mm 3 mps 685 mmHg 15%
15:00 +34°C° 0 mm 4 mps 685 mmHg 15%
16:00 +33°C° 0 mm 4 mps 684 mmHg 15%
17:00 +32°C° 0 mm 4 mps 684 mmHg 15%
18:00 +27°C° 0 mm 4 mps 684 mmHg 17%
19:00 +23°C° 0 mm 4 mps 684 mmHg 20%
20:00 +20°C° 0 mm 3 mps 685 mmHg 23%
21:00 +18°C° 0 mm 3 mps 685 mmHg 26%
22:00 +16°C° 0 mm 2 mps 685 mmHg 30%
23:00 +15°C° 0 mm 2 mps 685 mmHg 33%

Day after tomorrow, 12 July, Sunday

Time Temperature Precipitation Wind Pressure Humidity
00:00 +14°C° 0 mm 2 mps 685 mmHg 36%
01:00 +13°C° 0 mm 2 mps 685 mmHg 38%
02:00 +12°C° 0 mm 2 mps 685 mmHg 41%
03:00 +10°C° 0 mm 2 mps 685 mmHg 41%
04:00 +9°C° 0 mm 2 mps 685 mmHg 42%
05:00 +8°C° 0 mm 2 mps 685 mmHg 42%
06:00 +9°C° 0 mm 3 mps 686 mmHg 39%
07:00 +10°C° 0 mm 3 mps 686 mmHg 35%
08:00 +10°C° 0 mm 4 mps 687 mmHg 32%
09:00 +14°C° 0 mm 4 mps 687 mmHg 27%
10:00 +18°C° 0 mm 4 mps 687 mmHg 22%
11:00 +21°C° 0 mm 4 mps 688 mmHg 17%
12:00 +24°C° 0 mm 3 mps 687 mmHg 15%
13:00 +26°C° 0 mm 3 mps 687 mmHg 14%
14:00 +28°C° 0 mm 3 mps 686 mmHg 12%
15:00 +28°C° 0 mm 2 mps 686 mmHg 12%
16:00 +28°C° 0 mm 2 mps 686 mmHg 13%
17:00 +27°C° 0 mm 2 mps 685 mmHg 13%
18:00 +24°C° 0 mm 2 mps 685 mmHg 17%
19:00 +21°C° 0 mm 1 mps 685 mmHg 20%
20:00 +18°C° 0 mm 1 mps 685 mmHg 24%
21:00 +16°C° 0 mm 1 mps 685 mmHg 26%
22:00 +15°C° 0 mm 1 mps 685 mmHg 28%
23:00 +15°C° 0 mm 1 mps 685 mmHg 31%

13 July, Monday

Time Temperature Precipitation Wind Pressure Humidity
00:00 +14°C° 0 mm 1 mps 684 mmHg 32%
01:00 +13°C° 0 mm 1 mps 684 mmHg 34%
02:00 +12°C° 0 mm 1 mps 684 mmHg 35%
03:00 +11°C° 0 mm 1 mps 684 mmHg 39%
04:00 +10°C° 0 mm 1 mps 684 mmHg 43%
05:00 +9°C° 0 mm 1 mps 683 mmHg 46%
06:00 +10°C° 0 mm 1 mps 684 mmHg 46%
07:00 +12°C° 0 mm 1 mps 684 mmHg 45%
08:00 +13°C° 0 mm 1 mps 685 mmHg 45%
09:00 +18°C° 0 mm 1 mps 686 mmHg 40%
10:00 +22°C° 0 mm 1 mps 686 mmHg 36%
11:00 +27°C° 0 mm 2 mps 687 mmHg 31%
12:00 +29°C° 0 mm 2 mps 686 mmHg 27%
13:00 +31°C° 0 mm 2 mps 686 mmHg 22%
14:00 +32°C° 0 mm 2 mps 685 mmHg 18%
15:00 +31°C° 0 mm 2 mps 685 mmHg 18%
16:00 +30°C° 0 mm 2 mps 684 mmHg 19%
17:00 +29°C° 0 mm 3 mps 684 mmHg 19%
18:00 +26°C° 0 mm 3 mps 683 mmHg 32%
19:00 +21°C° 0 mm 3 mps 683 mmHg 45%
20:00 +18°C° 0 mm 2 mps 683 mmHg 57%
21:00 +17°C° 0 mm 2 mps 683 mmHg 61%
22:00 +16°C° 0 mm 2 mps 683 mmHg 65%
23:00 +15°C° 0 mm 1 mps 683 mmHg 69%

14 July, Tuesday

Time Temperature Precipitation Wind Pressure Humidity
00:00 +14°C° 0 mm 1 mps 683 mmHg 72%
01:00 +13°C° 0 mm 1 mps 683 mmHg 75%
02:00 +12°C° 0 mm 1 mps 683 mmHg 78%
03:00 +11°C° 0 mm 1 mps 683 mmHg 76%
04:00 +11°C° 0 mm 1 mps 683 mmHg 74%
05:00 +11°C° 0 mm 1 mps 683 mmHg 72%
06:00 +12°C° 0 mm 1 mps 684 mmHg 65%
07:00 +13°C° 0 mm 1 mps 685 mmHg 57%
08:00 +15°C° 0 mm 1 mps 685 mmHg 50%
09:00 +19°C° 0 mm 1 mps 686 mmHg 39%
10:00 +23°C° 0 mm 1 mps 686 mmHg 29%
11:00 +27°C° 0 mm 2 mps 687 mmHg 19%
12:00 +29°C° 0 mm 2 mps 686 mmHg 16%
13:00 +30°C° 0 mm 2 mps 686 mmHg 13%
14:00 +32°C° 0 mm 2 mps 685 mmHg 10%
15:00 +31°C° 0 mm 2 mps 685 mmHg 11%
16:00 +30°C° 0 mm 2 mps 685 mmHg 11%
17:00 +29°C° 0 mm 3 mps 684 mmHg 12%
18:00 +26°C° 0 mm 2 mps 684 mmHg 16%
19:00 +21°C° 0 mm 2 mps 684 mmHg 20%
20:00 +19°C° 0 mm 1 mps 684 mmHg 24%
21:00 +18°C° 0 mm 1 mps 684 mmHg 24%
22:00 +15°C° 0 mm 1 mps 684 mmHg 23%
23:00 +14°C° 0 mm 1 mps 685 mmHg 23%

15 July, Wednesday

Time Temperature Precipitation Wind Pressure Humidity
00:00 +13°C° 0 mm 1 mps 685 mmHg 23%
01:00 +13°C° 0 mm 1 mps 685 mmHg 24%
02:00 +12°C° 0 mm 2 mps 685 mmHg 24%
03:00 +10°C° 0 mm 2 mps 685 mmHg 25%
04:00 +10°C° 0 mm 2 mps 685 mmHg 26%
05:00 +9°C° 0 mm 2 mps 685 mmHg 27%
06:00 +10°C° 0 mm 2 mps 686 mmHg 27%
07:00 +12°C° 0 mm 2 mps 687 mmHg 26%
08:00 +13°C° 0 mm 2 mps 688 mmHg 25%
09:00 +16°C° 0 mm 3 mps 688 mmHg 22%
10:00 +20°C° 0 mm 4 mps 689 mmHg 19%
11:00 +23°C° 0 mm 5 mps 689 mmHg 16%
12:00 +25°C° 0 mm 5 mps 689 mmHg 15%
13:00 +26°C° 0 mm 5 mps 689 mmHg 14%
14:00 +28°C° 0 mm 5 mps 688 mmHg 14%
15:00 +27°C° 0 mm 4 mps 688 mmHg 15%
16:00 +27°C° 0 mm 4 mps 688 mmHg 16%
17:00 +26°C° 0 mm 4 mps 688 mmHg 17%
18:00 +22°C° 0 mm 3 mps 688 mmHg 23%
19:00 +19°C° 0 mm 2 mps 688 mmHg 29%
20:00 +16°C° 0 mm 1 mps 688 mmHg 35%
21:00 +15°C° 0 mm 2 mps 688 mmHg 40%
22:00 +14°C° 0 mm 3 mps 688 mmHg 45%
23:00 +13°C° 0 mm 3 mps 689 mmHg 50%
Show more